Location: Erdweis
(48.5167°N, 15.3500°E)
Time: 11:26:38
(UTC+00:00)

X-37B - Pass Details

Date: 01 December 2020
Orbit: 384 x 390 km, 45.0° (Epoch: 02 January)

Event Time Altitude Azimuth Distance (km) Brightness Sun altitude
Rises 15:48:54 0° 224° (SW) 2,255 6.0 -7.1°
Reaches altitude 10° 15:51:16 10° 207° (SSW) 1,405 4.3 -7.4°
Maximum altitude 15:53:42 21° 157° (SSE) 941 2.5 -7.8°
Drops below altitude 10° 15:56:10 10° 106° (ESE) 1,412 3.0 -8.2°
Enters shadow 15:56:44 - 100° (E) 1,597 3.2 -8.3°
